CZ-11 DEB (44326 NORAD) Tracking and Keplerian Element Data

This shows tracking and keplerian element data for the satellite.

Feedback or suggestion? Click here.




ElementValue
Catalog44326
NameCZ-11 DEB
Epoch Orbit142
Epoch Day171.45362553
Epoch Year2019
RAAN215.216
Inclination44.9278
Eccentricity0.0252403
Argument of Perigee29.3618
Mean Anonmoly334.8569
Mean Motion15.42642541
Decay Rate0.00160612
L11 44326U 19032N 19171.45362553 .00160612 14656-4 10608-2 0 9995
L22 44326 44.9278 215.2160 0252403 29.3618 334.8569 15.42642541 1426

Live tracking and technical data element details for CZ-11 DEB (NORAD 44326). CZ-11 DEB can be tracked NOW for your location showing map with azimuth and elevation plus other details from your city location.

Track the satellite on the map from your city or location and see movement details for azimuth, elevation, latitude, longitude, range, height, and movement on the map or in text.







IsCatalogInMostPopularTable: catalog: 44326, numindb: 7
Update: records affected: 1



GetName: 44326 CZ-11 DEB

Hit Count: updated at: Wed, 17 Jul 2019 08:59:02 GMT